�v������,,���ԉ��x,�����t���O,���Ԏ��x,�����t���O,��Q��,�����t���O,�q����,�����t���O,����,�����t���O,�E�ߎ�,�����t���O
2004/1/1,0:00:00,19,0,43.1,0,19,0,17.5,0,13.3,0,22,0
2004/1/1,0:10:00,19,0,43.2,0,18.9,0,17.5,0,13.4,0,21.9,0
2004/1/1,0:20:00,18.9,0,43.1,0,18.9,0,17.4,0,13.4,0,21.9,0
2004/1/1,0:30:00,18.9,0,43.3,0,18.9,0,17.4,0,13.5,0,21.9,0
2004/1/1,0:40:00,18.9,0,43.1,0,18.8,0,17.3,0,13.5,0,21.9,0
2004/1/1,0:50:00,18.8,0,43.1,0,18.8,0,17.3,0,13.5,0,21.9,0
2004/1/1,1:00:00,18.8,0,43.1,0,18.8,0,17.3,0,13.6,0,21.9,0
2004/1/1,1:10:00,18.8,0,43,0,18.8,0,17.2,0,13.6,0,21.8,0
2004/1/1,1:20:00,18.7,0,43,0,18.7,0,17.2,0,13.7,0,21.8,0
2004/1/1,1:30:00,18.7,0,43.1,0,18.7,0,17.2,0,13.7,0,21.8,0
2004/1/1,1:40:00,18.7,0,42.8,0,18.7,0,17.1,0,13.7,0,21.8,0
2004/1/1,1:50:00,18.6,0,42.7,0,18.6,0,17.1,0,13.8,0,21.8,0
2004/1/1,2:00:00,18.6,0,42.7,0,18.6,0,17.1,0,13.8,0,21.7,0
2004/1/1,2:10:00,18.6,0,42.7,0,18.6,0,17,0,13.8,0,21.7,0
2004/1/1,2:20:00,18.5,0,42.7,0,18.6,0,17,0,13.9,0,21.7,0
2004/1/1,2:30:00,18.5,0,42.7,0,18.5,0,17,0,13.9,0,21.7,0
2004/1/1,2:40:00,18.5,0,42.5,0,18.5,0,16.9,0,14,0,21.7,0
2004/1/1,2:50:00,18.4,0,42.6,0,18.5,0,16.9,0,14,0,21.7,0
2004/1/1,3:00:00,18.4,0,42.6,0,18.4,0,16.9,0,14,0,21.6,0
2004/1/1,3:10:00,18.4,0,42.8,0,18.4,0,16.8,0,14.1,0,21.7,0
2004/1/1,3:20:00,18.3,0,42.7,0,18.4,0,16.8,0,14.1,0,21.6,0
2004/1/1,3:30:00,18.3,0,42.5,0,18.3,0,16.8,0,14.1,0,21.6,0
2004/1/1,3:40:00,18.3,0,42.4,0,18.3,0,16.8,0,14.2,0,21.6,0
2004/1/1,3:50:00,18.3,0,42.6,0,18.3,0,16.7,0,14.2,0,21.6,0
2004/1/1,4:00:00,18.2,0,42.5,0,18.3,0,16.7,0,14.2,0,21.6,0
2004/1/1,4:10:00,18.2,0,42.3,0,18.2,0,16.7,0,14.3,0,21.5,0
2004/1/1,4:20:00,18.2,0,42.3,0,18.2,0,16.6,0,14.3,0,21.5,0
2004/1/1,4:30:00,18.1,0,42.5,0,18.2,0,16.6,0,14.3,0,21.5,0
2004/1/1,4:40:00,18.1,0,42.8,0,18.1,0,16.6,0,14.4,0,21.5,0
2004/1/1,4:50:00,18.1,0,42.7,0,18.1,0,16.6,0,14.4,0,21.5,0
2004/1/1,5:00:00,18.1,0,42.7,0,18.1,0,16.5,0,14.4,0,21.4,0
2004/1/1,5:10:00,18,0,42.7,0,18.1,0,16.5,0,14.4,0,21.4,0
2004/1/1,5:20:00,18,0,42.8,0,18,0,16.5,0,14.5,0,21.4,0
2004/1/1,5:30:00,18,0,42.8,0,18,0,16.5,0,14.5,0,21.4,0
2004/1/1,5:40:00,18,0,42.6,0,18,0,16.4,0,14.5,0,21.4,0
2004/1/1,5:50:00,18,0,42.6,0,18,0,16.4,0,14.5,0,21.3,0
2004/1/1,6:00:00,17.9,0,42.8,0,17.9,0,16.4,0,14.6,0,21.4,0
2004/1/1,6:10:00,17.9,0,42.5,0,17.9,0,16.4,0,14.6,0,21.3,0
2004/1/1,6:20:00,17.8,0,42.3,0,17.9,0,16.3,0,14.6,0,21.3,0
2004/1/1,6:30:00,17.8,0,42.3,0,17.9,0,16.3,0,14.6,0,21.2,0
2004/1/1,6:40:00,17.8,0,42.4,0,17.8,0,16.3,0,14.7,0,21.3,0
2004/1/1,6:50:00,17.8,0,42.3,0,17.8,0,16.3,0,14.7,0,21.3,0
2004/1/1,7:00:00,17.8,0,42.3,0,17.8,0,16.2,0,14.7,0,21.2,0
2004/1/1,7:10:00,17.7,0,42.5,0,17.8,0,16.2,0,14.7,0,21.2,0
2004/1/1,7:20:00,17.7,0,42.4,0,17.7,0,16.2,0,14.8,0,21.2,0
2004/1/1,7:30:00,17.7,0,42.4,0,17.7,0,16.2,0,14.8,0,21.2,0
2004/1/1,7:40:00,17.7,0,42.5,0,17.7,0,16.2,0,14.8,0,21.2,0
2004/1/1,7:50:00,17.7,0,42.6,0,17.7,0,16.1,0,14.8,0,21.1,0
2004/1/1,8:00:00,17.7,0,42.6,0,17.7,0,16.1,0,14.8,0,21.2,0
2004/1/1,8:10:00,17.7,0,42.4,0,17.7,0,16.1,0,14.9,0,21.1,0
2004/1/1,8:20:00,17.7,0,42.3,0,17.6,0,16.1,0,14.9,0,21.1,0
2004/1/1,8:30:00,17.6,0,42.5,0,17.6,0,16.1,0,14.9,0,21.1,0
2004/1/1,8:40:00,17.6,0,42.5,0,17.6,0,16.1,0,14.9,0,21.1,0
2004/1/1,8:50:00,17.7,0,42.4,0,17.6,0,16.1,0,14.9,0,21.1,0
2004/1/1,9:00:00,17.7,0,42.5,0,17.6,0,16.1,0,15,0,21.1,0
2004/1/1,9:10:00,17.6,0,42.6,0,17.6,0,16.1,0,15,0,21.1,0
2004/1/1,9:20:00,17.6,0,42.5,0,17.6,0,16.1,0,15,0,21,0
2004/1/1,9:30:00,17.6,0,42.6,0,17.6,0,16.1,0,15,0,21,0
2004/1/1,9:40:00,17.6,0,42.4,0,17.6,0,16.1,0,15.1,0,21,0
2004/1/1,9:50:00,17.7,0,42.5,0,17.6,0,16.1,0,15.1,0,21,0
2004/1/1,10:00:00,17.7,0,42.6,0,17.6,0,16.1,0,15.1,0,21,0
2004/1/1,10:10:00,17.6,0,42.6,0,17.6,0,16.1,0,15.1,0,21,0
2004/1/1,10:20:00,17.6,0,42.6,0,17.6,0,16.1,0,15.1,0,21,0
2004/1/1,10:30:00,17.7,0,42.6,0,17.6,0,16.2,0,15.2,0,21,0
2004/1/1,10:40:00,17.7,0,42.5,0,17.6,0,16.2,0,15.2,0,20.9,0
2004/1/1,10:50:00,17.7,0,42.4,0,17.6,0,16.2,0,15.2,0,20.9,0
2004/1/1,11:00:00,17.7,0,42.6,0,17.6,0,16.2,0,15.2,0,20.9,0
2004/1/1,11:10:00,17.7,0,42.5,0,17.6,0,16.2,0,15.3,0,20.9,0
2004/1/1,11:20:00,17.7,0,42.7,0,17.6,0,16.2,0,15.3,0,20.8,0
2004/1/1,11:30:00,17.6,0,42.8,0,17.6,0,16.2,0,15.3,0,20.9,0
2004/1/1,11:40:00,17.6,0,42.7,0,17.6,0,16.2,0,15.3,0,20.9,0
2004/1/1,11:50:00,17.6,0,42.6,0,17.5,0,16.2,0,15.3,0,20.9,0
2004/1/1,12:00:00,17.6,0,42.7,0,17.6,0,16.2,0,15.3,0,20.9,0
2004/1/1,12:10:00,17.6,0,42.7,0,17.6,0,16.2,0,15.4,0,20.9,0
2004/1/1,12:20:00,17.6,0,42.8,0,17.6,0,16.2,0,15.4,0,20.8,0
2004/1/1,12:30:00,17.6,0,42.7,0,17.5,0,16.2,0,15.4,0,20.8,0
2004/1/1,12:40:00,17.6,0,42.7,0,17.5,0,16.2,0,15.4,0,20.8,0
2004/1/1,12:50:00,17.6,0,42.8,0,17.5,0,16.2,0,15.5,0,20.8,0
2004/1/1,13:00:00,17.6,0,42.7,0,17.5,0,16.2,0,15.5,0,20.8,0
2004/1/1,13:10:00,17.6,0,42.7,0,17.5,0,16.2,0,15.5,0,20.8,0
2004/1/1,13:20:00,17.7,0,42.6,0,17.5,0,16.2,0,15.5,0,20.7,0
2004/1/1,13:30:00,17.6,0,42.6,0,17.5,0,16.2,0,15.5,0,20.7,0
2004/1/1,13:40:00,17.6,0,42.5,0,17.5,0,16.2,0,15.5,0,20.7,0
2004/1/1,13:50:00,17.6,0,42.7,0,17.5,0,16.2,0,15.5,0,20.7,0
2004/1/1,14:00:00,17.6,0,42.5,0,17.5,0,16.2,0,15.6,0,20.7,0
2004/1/1,14:10:00,17.6,0,42.4,0,17.5,0,16.2,0,15.6,0,20.6,0
2004/1/1,14:20:00,17.6,0,42.5,0,17.5,0,16.1,0,15.6,0,20.6,0
2004/1/1,14:30:00,17.6,0,42.4,0,17.5,0,16.1,0,15.6,0,20.6,0
2004/1/1,14:40:00,17.5,0,42.4,0,17.4,0,16.1,0,15.6,0,20.6,0
2004/1/1,14:50:00,17.5,0,42.4,0,17.4,0,16.1,0,15.6,0,20.6,0
2004/1/1,15:00:00,17.5,0,42.4,0,17.4,0,16.1,0,15.7,0,20.6,0
2004/1/1,15:10:00,17.5,0,42.4,0,17.4,0,16.1,0,15.7,0,20.6,0
2004/1/1,15:20:00,17.4,0,42.4,0,17.4,0,16,0,15.7,0,20.5,0
2004/1/1,15:30:00,17.4,0,42.4,0,17.4,0,16,0,15.7,0,20.6,0
2004/1/1,15:40:00,17.4,0,42.4,0,17.3,0,16,0,15.7,0,20.5,0
2004/1/1,15:50:00,17.3,0,42.3,0,17.3,0,15.9,0,15.7,0,20.5,0
2004/1/1,16:00:00,17.3,0,42.4,0,17.3,0,15.9,0,15.8,0,20.5,0
2004/1/1,16:10:00,17.3,0,42.3,0,17.3,0,15.9,0,15.8,0,20.5,0
2004/1/1,16:20:00,17.3,0,42.3,0,17.3,0,15.9,0,15.8,0,20.5,0
2004/1/1,16:30:00,17.3,0,42.3,0,17.2,0,15.8,0,15.8,0,20.5,0
2004/1/1,16:40:00,17.2,0,42.3,0,17.2,0,15.8,0,15.8,0,20.5,0
2004/1/1,16:50:00,17.2,0,42.2,0,17.2,0,15.8,0,15.8,0,20.4,0
2004/1/1,17:00:00,17.2,0,42.2,0,17.2,0,15.8,0,15.8,0,20.4,0
2004/1/1,17:10:00,17.2,0,42.2,0,17.1,0,15.8,0,15.8,0,20.4,0
2004/1/1,17:20:00,17.2,0,42.2,0,17.1,0,15.7,0,15.8,0,20.4,0
2004/1/1,17:30:00,17.1,0,42.1,0,17.1,0,15.7,0,15.9,0,20.4,0
2004/1/1,17:40:00,17.1,0,42.2,0,17.1,0,15.7,0,15.9,0,20.4,0
2004/1/1,17:50:00,17.1,0,42.1,0,17.1,0,15.7,0,15.9,0,20.3,0
2004/1/1,18:00:00,17.1,0,42.1,0,17,0,15.6,0,15.9,0,20.3,0
2004/1/1,18:10:00,17.1,0,42.1,0,17,0,15.6,0,15.9,0,20.3,0
2004/1/1,18:20:00,17,0,42.1,0,17,0,15.6,0,15.9,0,20.3,0
2004/1/1,18:30:00,17,0,42.1,0,17,0,15.6,0,15.9,0,20.3,0
2004/1/1,18:40:00,17,0,42.1,0,16.9,0,15.6,0,15.9,0,20.3,0
2004/1/1,18:50:00,17,0,42,0,16.9,0,15.5,0,15.9,0,20.3,0
2004/1/1,19:00:00,16.9,0,42,0,16.9,0,15.5,0,15.9,0,20.3,0
2004/1/1,19:10:00,16.9,0,42,0,16.9,0,15.5,0,16,0,20.2,0
2004/1/1,19:20:00,16.9,0,42,0,16.9,0,15.5,0,16,0,20.2,0
2004/1/1,19:30:00,16.9,0,42,0,16.8,0,15.5,0,16,0,20.3,0
2004/1/1,19:40:00,16.9,0,42.1,0,16.8,0,15.4,0,16,0,20.2,0
2004/1/1,19:50:00,16.8,0,42.1,0,16.8,0,15.4,0,16,0,20.2,0
2004/1/1,20:00:00,16.8,0,42.1,0,16.8,0,15.4,0,16,0,20.2,0
2004/1/1,20:10:00,16.8,0,42.1,0,16.8,0,15.4,0,16,0,20.2,0
2004/1/1,20:20:00,16.8,0,42.1,0,16.8,0,15.4,0,16,0,20.1,0
2004/1/1,20:30:00,16.8,0,42.1,0,16.7,0,15.4,0,16,0,20.2,0
2004/1/1,20:40:00,16.8,0,42.1,0,16.7,0,15.3,0,16,0,20.2,0
2004/1/1,20:50:00,16.7,0,42.1,0,16.7,0,15.3,0,16.1,0,20.1,0
2004/1/1,21:00:00,16.7,0,42.1,0,16.7,0,15.3,0,16.1,0,20.1,0
2004/1/1,21:10:00,16.7,0,42.1,0,16.6,0,15.3,0,16.1,0,20.1,0
2004/1/1,21:20:00,16.7,0,42.2,0,16.6,0,15.3,0,16.1,0,20.1,0
2004/1/1,21:30:00,16.6,0,42.1,0,16.6,0,15.2,0,16.1,0,20.1,0
2004/1/1,21:40:00,16.6,0,42.1,0,16.6,0,15.2,0,16.1,0,20,0
2004/1/1,21:50:00,16.6,0,42.1,0,16.6,0,15.2,0,16.1,0,20,0
2004/1/1,22:00:00,16.6,0,42.1,0,16.5,0,15.2,0,16.1,0,20,0
2004/1/1,22:10:00,16.6,0,42.1,0,16.5,0,15.2,0,16.1,0,20,0
2004/1/1,22:20:00,16.5,0,42.1,0,16.5,0,15.1,0,16.1,0,20,0
2004/1/1,22:30:00,16.5,0,42.1,0,16.5,0,15.1,0,16.1,0,20,0
2004/1/1,22:40:00,16.5,0,42.1,0,16.5,0,15.1,0,16.1,0,20,0
2004/1/1,22:50:00,16.5,0,42.1,0,16.4,0,15.1,0,16.1,0,20,0
2004/1/1,23:00:00,16.5,0,42.1,0,16.4,0,15.1,0,16.1,0,20,0
2004/1/1,23:10:00,16.4,0,42.1,0,16.4,0,15,0,16.2,0,19.9,0
2004/1/1,23:20:00,16.4,0,42,0,16.4,0,15,0,16.1,0,19.9,0
2004/1/1,23:30:00,16.4,0,42,0,16.3,0,15,0,16.1,0,19.9,0
2004/1/1,23:40:00,16.4,0,42,0,16.3,0,15,0,16.2,0,19.9,0
2004/1/1,23:50:00,16.4,0,42.1,0,16.3,0,15,0,16.2,0,19.9,0
2004/1/2,0:00:00,16.3,0,42,0,16.3,0,14.9,0,16.2,0,19.9,0
2004/1/2,0:10:00,16.3,0,42,0,16.2,0,14.9,0,16.2,0,19.8,0
2004/1/2,0:20:00,16.3,0,42,0,16.2,0,14.9,0,16.2,0,19.9,0
2004/1/2,0:30:00,16.3,0,42,0,16.2,0,14.9,0,16.2,0,19.8,0
2004/1/2,0:40:00,16.3,0,42,0,16.2,0,14.9,0,16.2,0,19.8,0
2004/1/2,0:50:00,16.2,0,42,0,16.2,0,14.9,0,16.2,0,19.8,0
2004/1/2,1:00:00,16.2,0,42,0,16.1,0,14.8,0,16.2,0,19.8,0
2004/1/2,1:10:00,16.2,0,42,0,16.1,0,14.8,0,16.2,0,19.8,0
2004/1/2,1:20:00,16.2,0,42,0,16.1,0,14.8,0,16.2,0,19.8,0
2004/1/2,1:30:00,16.2,0,42,0,16.1,0,14.8,0,16.2,0,19.7,0
2004/1/2,1:40:00,16.1,0,42,0,16,0,14.8,0,16.2,0,19.7,0
2004/1/2,1:50:00,16.1,0,42.1,0,16,0,14.8,0,16.2,0,19.7,0
2004/1/2,2:00:00,16.1,0,42,0,16,0,14.8,0,16.2,0,19.7,0
2004/1/2,2:10:00,16.1,0,42,0,16,0,14.7,0,16.2,0,19.7,0
2004/1/2,2:20:00,16.1,0,42,0,15.9,0,14.7,0,16.2,0,19.7,0
2004/1/2,2:30:00,16,0,41.9,0,15.9,0,14.7,0,16.2,0,19.7,0
2004/1/2,2:40:00,16,0,41.9,0,15.9,0,14.7,0,16.2,0,19.6,0
2004/1/2,2:50:00,16,0,42,0,15.9,0,14.7,0,16.2,0,19.6,0
2004/1/2,3:00:00,16,0,41.9,0,15.9,0,14.7,0,16.2,0,19.6,0
2004/1/2,3:10:00,16,0,41.9,0,15.8,0,14.6,0,16.2,0,19.6,0
2004/1/2,3:20:00,15.9,0,41.9,0,15.8,0,14.6,0,16.2,0,19.6,0
2004/1/2,3:30:00,15.9,0,41.9,0,15.8,0,14.6,0,16.2,0,19.6,0
2004/1/2,3:40:00,15.9,0,41.9,0,15.8,0,14.6,0,16.2,0,19.6,0
2004/1/2,3:50:00,15.9,0,41.9,0,15.8,0,14.6,0,16.2,0,19.6,0
2004/1/2,4:00:00,15.9,0,41.9,0,15.7,0,14.6,0,16.2,0,19.5,0
2004/1/2,4:10:00,15.8,0,41.9,0,15.7,0,14.6,0,16.2,0,19.5,0
2004/1/2,4:20:00,15.8,0,42,0,15.7,0,14.5,0,16.2,0,19.5,0
2004/1/2,4:30:00,15.8,0,41.9,0,15.7,0,14.5,0,16.2,0,19.5,0
2004/1/2,4:40:00,15.8,0,41.9,0,15.7,0,14.5,0,16.2,0,19.4,0
2004/1/2,4:50:00,15.8,0,41.9,0,15.6,0,14.5,0,16.2,0,19.5,0
2004/1/2,5:00:00,15.8,0,42,0,15.6,0,14.5,0,16.2,0,19.4,0
2004/1/2,5:10:00,15.8,0,42,0,15.6,0,14.5,0,16.2,0,19.4,0
2004/1/2,5:20:00,15.7,0,42,0,15.6,0,14.5,0,16.2,0,19.4,0
2004/1/2,5:30:00,15.7,0,42,0,15.6,0,14.5,0,16.2,0,19.4,0
2004/1/2,5:40:00,15.7,0,42.1,0,15.6,0,14.5,0,16.2,0,19.4,0
2004/1/2,5:50:00,15.7,0,42,0,15.6,0,14.5,0,16.2,0,19.4,0
2004/1/2,6:00:00,15.7,0,42,0,15.5,0,14.5,0,16.2,0,19.4,0
2004/1/2,6:10:00,15.6,0,42,0,15.5,0,14.4,0,16.2,0,19.3,0
2004/1/2,6:20:00,15.6,0,42,0,15.5,0,14.4,0,16.2,0,19.4,0
2004/1/2,6:30:00,15.6,0,42,0,15.5,0,14.4,0,16.2,0,19.3,0
2004/1/2,6:40:00,15.6,0,42,0,15.5,0,14.4,0,16.2,0,19.3,0
2004/1/2,6:50:00,15.6,0,42,0,15.4,0,14.4,0,16.2,0,19.3,0
2004/1/2,7:00:00,15.6,0,42,0,15.4,0,14.4,0,16.2,0,19.3,0
2004/1/2,7:10:00,15.6,0,42,0,15.4,0,14.4,0,16.2,0,19.3,0
2004/1/2,7:20:00,15.6,0,42,0,15.4,0,14.4,0,16.2,0,19.2,0
2004/1/2,7:30:00,15.5,0,42,0,15.4,0,14.4,0,16.2,0,19.3,0
2004/1/2,7:40:00,15.5,0,42,0,15.4,0,14.3,0,16.2,0,19.2,0
2004/1/2,7:50:00,15.5,0,42,0,15.4,0,14.3,0,16.2,0,19.2,0
2004/1/2,8:00:00,15.5,0,41.9,0,15.4,0,14.3,0,16.1,0,19.2,0
2004/1/2,8:10:00,15.5,0,41.9,0,15.4,0,14.3,0,16.1,0,19.2,0
2004/1/2,8:20:00,15.5,0,41.8,0,15.4,0,14.3,0,16.1,0,19.2,0
2004/1/2,8:30:00,15.5,0,41.9,0,15.4,0,14.4,0,16.1,0,19.2,0
2004/1/2,8:40:00,15.6,0,41.9,0,15.4,0,14.4,0,16.1,0,19.2,0
2004/1/2,8:50:00,15.6,0,41.7,0,15.4,0,14.4,0,16.1,0,19.2,0
2004/1/2,9:00:00,15.6,0,41.9,0,15.4,0,14.4,0,16.1,0,19.1,0
2004/1/2,9:10:00,15.7,0,41.9,0,15.4,0,14.4,0,16.1,0,19.2,0
2004/1/2,9:20:00,15.7,0,41.9,0,15.4,0,14.4,0,16.1,0,19.1,0
2004/1/2,9:30:00,15.7,0,41.9,0,15.4,0,14.4,0,16.1,0,19.1,0
2004/1/2,9:40:00,15.7,0,41.9,0,15.4,0,14.4,0,16.1,0,19.1,0
2004/1/2,9:50:00,15.7,0,42,0,15.5,0,14.5,0,16.1,0,19.1,0
2004/1/2,10:00:00,15.7,0,42,0,15.5,0,14.5,0,16.1,0,19.1,0
2004/1/2,10:10:00,15.8,0,41.9,0,15.5,0,14.5,0,16.1,0,19.1,0
2004/1/2,10:20:00,15.8,0,41.8,0,15.5,0,14.5,0,16.1,0,19.1,0
2004/1/2,10:30:00,15.8,0,41.7,0,15.5,0,14.5,0,16.1,0,19.1,0
2004/1/2,10:40:00,15.8,0,41.7,0,15.5,0,14.5,0,16.1,0,19.1,0
2004/1/2,10:50:00,15.8,0,41.7,0,15.5,0,14.5,0,16.1,0,19.1,0
2004/1/2,11:00:00,15.8,0,41.7,0,15.6,0,14.5,0,16.1,0,19.1,0
2004/1/2,11:10:00,15.8,0,41.8,0,15.6,0,14.5,0,16.1,0,19.1,0
2004/1/2,11:20:00,15.8,0,41.9,0,15.6,0,14.5,0,16.1,0,19.1,0
2004/1/2,11:30:00,15.8,0,41.8,0,15.6,0,14.6,0,16.1,0,19.1,0
2004/1/2,11:40:00,15.9,0,41.7,0,15.6,0,14.6,0,16.1,0,19.1,0
2004/1/2,11:50:00,15.8,0,41.8,0,15.6,0,14.6,0,16.1,0,19.1,0
2004/1/2,12:00:00,15.9,0,41.7,0,15.6,0,14.6,0,16.1,0,19.1,0
2004/1/2,12:10:00,15.8,0,41.7,0,15.6,0,14.6,0,16.1,0,19.1,0
2004/1/2,12:20:00,15.8,0,41.7,0,15.7,0,14.6,0,16.1,0,19.1,0
2004/1/2,12:30:00,15.8,0,41.7,0,15.7,0,14.6,0,16.1,0,19.1,0
2004/1/2,12:40:00,15.8,0,41.7,0,15.7,0,14.6,0,16.1,0,19.1,0
2004/1/2,12:50:00,15.9,0,41.7,0,15.7,0,14.6,0,16.1,0,19.1,0
2004/1/2,13:00:00,15.9,0,41.6,0,15.7,0,14.7,0,16.1,0,19,0
2004/1/2,13:10:00,15.9,0,41.7,0,15.7,0,14.7,0,16.1,0,19,0
2004/1/2,13:20:00,15.9,0,41.7,0,15.7,0,14.7,0,16.1,0,19,0
2004/1/2,13:30:00,15.8,0,41.7,0,15.7,0,14.7,0,16.1,0,19,0
2004/1/2,13:40:00,15.8,0,41.7,0,15.7,0,14.7,0,16.1,0,19,0
2004/1/2,13:50:00,15.8,0,41.8,0,15.7,0,14.7,0,16.1,0,18.9,0
2004/1/2,14:00:00,15.8,0,41.7,0,15.7,0,14.7,0,16.1,0,19,0
2004/1/2,14:10:00,15.8,0,41.8,0,15.7,0,14.7,0,16,0,18.9,0
2004/1/2,14:20:00,15.8,0,41.8,0,15.7,0,14.7,0,16.1,0,18.9,0
2004/1/2,14:30:00,15.8,0,41.8,0,15.7,0,14.7,0,16,0,19,0
2004/1/2,14:40:00,15.8,0,41.8,0,15.7,0,14.7,0,16.1,0,18.9,0
2004/1/2,14:50:00,15.8,0,41.8,0,15.7,0,14.7,0,16.1,0,18.9,0
2004/1/2,15:00:00,15.8,0,41.9,0,15.7,0,14.7,0,16.1,0,18.9,0
2004/1/2,15:10:00,15.8,0,41.9,0,15.7,0,14.7,0,16,0,18.9,0
2004/1/2,15:20:00,15.8,0,41.9,0,15.7,0,14.7,0,16,0,18.9,0
2004/1/2,15:30:00,15.7,0,41.9,0,15.6,0,14.7,0,16,0,18.9,0
2004/1/2,15:40:00,15.7,0,41.9,0,15.6,0,14.7,0,16,0,18.9,0
2004/1/2,15:50:00,15.7,0,42,0,15.6,0,14.6,0,16,0,18.9,0
2004/1/2,16:00:00,15.7,0,41.9,0,15.6,0,14.6,0,16,0,18.8,0
2004/1/2,16:10:00,15.7,0,41.9,0,15.6,0,14.6,0,16,0,18.8,0
2004/1/2,16:20:00,15.7,0,41.9,0,15.6,0,14.6,0,16,0,18.9,0
2004/1/2,16:30:00,15.6,0,41.9,0,15.6,0,14.6,0,16,0,18.9,0
2004/1/2,16:40:00,15.6,0,41.9,0,15.6,0,14.6,0,16,0,18.8,0
2004/1/2,16:50:00,15.6,0,41.9,0,15.5,0,14.6,0,16,0,18.8,0
2004/1/2,17:00:00,15.6,0,41.9,0,15.5,0,14.6,0,16,0,18.8,0
2004/1/2,17:10:00,15.6,0,41.9,0,15.5,0,14.6,0,16,0,18.8,0
2004/1/2,17:20:00,15.6,0,41.9,0,15.5,0,14.5,0,16,0,18.8,0
2004/1/2,17:30:00,15.6,0,41.9,0,15.5,0,14.5,0,16,0,18.8,0
2004/1/2,17:40:00,15.5,0,41.9,0,15.5,0,14.5,0,16,0,18.8,0
2004/1/2,17:50:00,15.5,0,41.9,0,15.5,0,14.5,0,16,0,18.7,0
2004/1/2,18:00:00,15.5,0,41.9,0,15.4,0,14.5,0,16,0,18.7,0
2004/1/2,18:10:00,15.5,0,41.9,0,15.4,0,14.5,0,16,0,18.8,0
2004/1/2,18:20:00,15.5,0,41.9,0,15.4,0,14.5,0,16,0,18.8,0
2004/1/2,18:30:00,15.5,0,41.9,0,15.4,0,14.5,0,16,0,18.7,0
2004/1/2,18:40:00,15.5,0,41.9,0,15.4,0,14.5,0,16,0,18.7,0
2004/1/2,18:50:00,15.5,0,41.9,0,15.4,0,14.5,0,16,0,18.7,0
2004/1/2,19:00:00,15.4,0,41.9,0,15.4,0,14.5,0,16,0,18.8,0
2004/1/2,19:10:00,15.4,0,41.9,0,15.3,0,14.4,0,16,0,18.8,0
2004/1/2,19:20:00,15.4,0,41.9,0,15.3,0,14.4,0,16,0,18.7,0
2004/1/2,19:30:00,15.4,0,41.8,0,15.3,0,14.4,0,16,0,18.7,0
2004/1/2,19:40:00,15.4,0,41.9,0,15.3,0,14.4,0,16,0,18.6,0
2004/1/2,19:50:00,15.4,0,41.9,0,15.3,0,14.4,0,16,0,18.6,0
2004/1/2,20:00:00,15.4,0,41.8,0,15.3,0,14.4,0,16,0,18.7,0
2004/1/2,20:10:00,15.4,0,41.8,0,15.3,0,14.4,0,16,0,18.7,0
2004/1/2,20:20:00,15.4,0,41.7,0,15.3,0,14.4,0,16,0,18.6,0
2004/1/2,20:30:00,15.3,0,41.8,0,15.2,0,14.4,0,16,0,18.6,0
2004/1/2,20:40:00,15.3,0,41.8,0,15.2,0,14.4,0,16,0,18.5,0
2004/1/2,20:50:00,15.3,0,41.8,0,15.2,0,14.3,0,16,0,18.5,0
2004/1/2,21:00:00,15.3,0,41.8,0,15.2,0,14.3,0,16,0,18.6,0
2004/1/2,21:10:00,15.3,0,41.7,0,15.2,0,14.3,0,16,0,18.6,0
2004/1/2,21:20:00,15.3,0,41.8,0,15.2,0,14.3,0,16,0,18.6,0
2004/1/2,21:30:00,15.3,0,41.7,0,15.2,0,14.3,0,16,0,18.5,0
2004/1/2,21:40:00,15.2,0,41.7,0,15.1,0,14.3,0,16,0,18.5,0
2004/1/2,21:50:00,15.2,0,41.7,0,15.1,0,14.3,0,15.9,0,18.5,0
2004/1/2,22:00:00,15.2,0,41.7,0,15.1,0,14.3,0,15.9,0,18.5,0
2004/1/2,22:10:00,15.2,0,41.7,0,15.1,0,14.3,0,15.9,0,18.5,0
2004/1/2,22:20:00,15.2,0,41.7,0,15.1,0,14.3,0,15.9,0,18.6,0
2004/1/2,22:30:00,15.2,0,41.7,0,15.1,0,14.3,0,15.9,0,18.4,0
2004/1/2,22:40:00,15.2,0,41.7,0,15.1,0,14.3,0,15.9,0,18.5,0
2004/1/2,22:50:00,15.2,0,41.7,0,15.1,0,14.3,0,15.9,0,18.4,0
2004/1/2,23:00:00,15.2,0,41.6,0,15,0,14.2,0,15.9,0,18.4,0
2004/1/2,23:10:00,15.1,0,41.6,0,15,0,14.2,0,15.9,0,18.4,0
2004/1/2,23:20:00,15.2,0,41.7,0,15,0,14.2,0,15.9,0,18.5,0
2004/1/2,23:30:00,15.1,0,41.7,0,15,0,14.2,0,15.9,0,18.4,0
2004/1/2,23:40:00,15.1,0,41.7,0,15,0,14.2,0,15.9,0,18.4,0
2004/1/2,23:50:00,15.1,0,41.7,0,15,0,14.2,0,15.9,0,18.4,0
2004/1/3,0:00:00,15.1,0,41.6,0,15,0,14.2,0,15.9,0,18.4,0
2004/1/3,0:10:00,15.1,0,41.6,0,15,0,14.2,0,15.9,0,18.4,0
2004/1/3,0:20:00,15.1,0,41.6,0,14.9,0,14.2,0,15.9,0,18.5,0
2004/1/3,0:30:00,15,0,41.6,0,14.9,0,14.2,0,15.9,0,18.3,0
2004/1/3,0:40:00,15,0,41.6,0,14.9,0,14.1,0,15.9,0,18.4,0
2004/1/3,0:50:00,15,0,41.6,0,14.9,0,14.1,0,15.9,0,18.4,0
2004/1/3,1:00:00,15,0,41.5,0,14.9,0,14.1,0,15.9,0,18.3,0
2004/1/3,1:10:00,15,0,41.6,0,14.9,0,14.1,0,15.9,0,18.3,0
2004/1/3,1:20:00,15,0,41.6,0,14.9,0,14.1,0,15.9,0,18.4,0
2004/1/3,1:30:00,15,0,41.7,0,14.9,0,14.1,0,15.9,0,18.3,0
2004/1/3,1:40:00,15,0,41.6,0,14.8,0,14.1,0,15.9,0,18.3,0
2004/1/3,1:50:00,14.9,0,41.6,0,14.8,0,14.1,0,15.9,0,18.4,0
2004/1/3,2:00:00,14.9,0,41.6,0,14.8,0,14.1,0,15.9,0,18.3,0
2004/1/3,2:10:00,14.9,0,41.6,0,14.8,0,14.1,0,15.8,0,18.3,0
2004/1/3,2:20:00,14.9,0,41.6,0,14.8,0,14,0,15.8,0,18.4,0
2004/1/3,2:30:00,14.9,0,41.6,0,14.8,0,14,0,15.8,0,18.3,0
2004/1/3,2:40:00,14.9,0,41.6,0,14.8,0,14,0,15.8,0,18.3,0
2004/1/3,2:50:00,14.9,0,41.6,0,14.8,0,14,0,15.8,0,18.2,0
2004/1/3,3:00:00,14.9,0,41.6,0,14.8,0,14,0,15.8,0,18.2,0
2004/1/3,3:10:00,14.9,0,41.6,0,14.8,0,14,0,15.8,0,18.3,0
2004/1/3,3:20:00,14.9,0,41.6,0,14.7,0,14,0,15.8,0,18.3,0
2004/1/3,3:30:00,14.8,0,41.6,0,14.7,0,14,0,15.8,0,18.2,0
2004/1/3,3:40:00,14.8,0,41.6,0,14.7,0,14,0,15.8,0,18.2,0
2004/1/3,3:50:00,14.8,0,41.6,0,14.7,0,14,0,15.8,0,18.3,0
2004/1/3,4:00:00,14.8,0,41.6,0,14.7,0,14,0,15.8,0,18.2,0
2004/1/3,4:10:00,14.8,0,41.6,0,14.7,0,13.9,0,15.8,0,18.3,0
2004/1/3,4:20:00,14.8,0,41.6,0,14.7,0,13.9,0,15.8,0,18.3,0
2004/1/3,4:30:00,14.8,0,41.6,0,14.7,0,13.9,0,15.8,0,18.2,0
2004/1/3,4:40:00,14.8,0,41.6,0,14.7,0,13.9,0,15.8,0,18.2,0
2004/1/3,4:50:00,14.8,0,41.6,0,14.7,0,13.9,0,15.8,0,18.2,0
2004/1/3,5:00:00,14.8,0,41.6,0,14.7,0,13.9,0,15.8,0,18.1,0
2004/1/3,5:10:00,14.8,0,41.5,0,14.6,0,13.9,0,15.8,0,18.2,0
2004/1/3,5:20:00,14.8,0,41.6,0,14.6,0,13.9,0,15.8,0,18.2,0
2004/1/3,5:30:00,14.8,0,41.6,0,14.6,0,13.9,0,15.7,0,18.1,0
2004/1/3,5:40:00,14.7,0,41.5,0,14.6,0,13.9,0,15.7,0,18.1,0
2004/1/3,5:50:00,14.7,0,41.5,0,14.6,0,13.9,0,15.7,0,18,0
2004/1/3,6:00:00,14.7,0,41.5,0,14.6,0,13.9,0,15.7,0,18,0
2004/1/3,6:10:00,14.7,0,41.5,0,14.6,0,13.9,0,15.7,0,18,0
2004/1/3,6:20:00,14.7,0,41.5,0,14.6,0,13.9,0,15.7,0,18.1,0
2004/1/3,6:30:00,14.7,0,41.6,0,14.6,0,13.9,0,15.7,0,18.1,0
2004/1/3,6:40:00,14.7,0,41.6,0,14.6,0,13.9,0,15.7,0,18,0
2004/1/3,6:50:00,14.7,0,41.6,0,14.6,0,13.9,0,15.7,0,18,0
2004/1/3,7:00:00,14.7,0,41.6,0,14.6,0,13.8,0,15.7,0,18,0
2004/1/3,7:10:00,14.7,0,41.6,0,14.5,0,13.8,0,15.7,0,18,0
2004/1/3,7:20:00,14.7,0,41.6,0,14.5,0,13.8,0,15.7,0,18.1,0
2004/1/3,7:30:00,14.7,0,41.5,0,14.5,0,13.8,0,15.7,0,18.1,0
2004/1/3,7:40:00,14.7,0,41.6,0,14.5,0,13.8,0,15.7,0,18.1,0
2004/1/3,7:50:00,14.6,0,41.6,0,14.5,0,13.8,0,15.7,0,18.1,0
2004/1/3,8:00:00,14.6,0,41.6,0,14.5,0,13.8,0,15.6,0,17.9,0
2004/1/3,8:10:00,14.6,0,41.6,0,14.5,0,13.8,0,15.6,0,18,0
2004/1/3,8:20:00,14.6,0,41.7,0,14.5,0,13.8,0,15.6,0,18,0
2004/1/3,8:30:00,14.6,0,41.6,0,14.5,0,13.8,0,15.6,0,17.9,0
2004/1/3,8:40:00,14.6,0,41.6,0,14.5,0,13.8,0,15.6,0,18,0
2004/1/3,8:50:00,14.6,0,41.7,0,14.5,0,13.8,0,15.6,0,18,0
2004/1/3,9:00:00,14.6,0,41.7,0,14.5,0,13.8,0,15.6,0,17.9,0
2004/1/3,9:10:00,14.7,0,41.7,0,14.5,0,13.8,0,15.6,0,18,0
2004/1/3,9:20:00,14.7,0,41.6,0,14.5,0,13.9,0,15.6,0,17.9,0
2004/1/3,9:30:00,14.7,0,41.6,0,14.6,0,13.9,0,15.6,0,17.9,0
2004/1/3,9:40:00,14.7,0,41.7,0,14.6,0,13.9,0,15.6,0,17.9,0
2004/1/3,9:50:00,14.7,0,41.6,0,14.6,0,13.9,0,15.6,0,17.9,0
2004/1/3,10:00:00,14.7,0,41.6,0,14.6,0,13.9,0,15.6,0,17.9,0
2004/1/3,10:10:00,14.7,0,41.6,0,14.6,0,13.9,0,15.6,0,17.9,0
2004/1/3,10:20:00,14.7,0,41.6,0,14.6,0,13.9,0,15.6,0,18,0
2004/1/3,10:30:00,14.7,0,41.5,0,14.6,0,13.9,0,15.6,0,17.9,0
2004/1/3,10:40:00,14.7,0,41.5,0,14.6,0,13.9,0,15.6,0,18,0
2004/1/3,10:50:00,14.8,0,41.4,0,14.6,0,13.9,0,15.6,0,18,0
2004/1/3,11:00:00,14.8,0,41.2,0,14.6,0,14,0,15.6,0,18,0
2004/1/3,11:10:00,14.8,0,41.2,0,14.7,0,14,0,15.6,0,18,0
2004/1/3,11:20:00,14.9,0,41,0,14.7,0,14,0,15.6,0,18,0
2004/1/3,11:30:00,14.9,0,41.1,0,14.7,0,14,0,15.5,0,18,0
2004/1/3,11:40:00,15.1,0,40.8,0,14.7,0,14,0,15.5,0,18,0
2004/1/3,11:50:00,15,0,41,0,14.7,0,14.1,0,15.5,0,18,0
2004/1/3,12:00:00,15,0,41.1,0,14.8,0,14.1,0,15.5,0,18,0
2004/1/3,12:10:00,15,0,41.1,0,14.8,0,14.1,0,15.5,0,18,0
2004/1/3,12:20:00,15,0,41.2,0,14.8,0,14.1,0,15.5,0,18,0
2004/1/3,12:30:00,15,0,41.2,0,14.8,0,14.1,0,15.5,0,18,0
2004/1/3,12:40:00,15,0,41.2,0,14.8,0,14.1,0,15.5,0,18,0
2004/1/3,12:50:00,15.1,0,41.1,0,14.8,0,14.1,0,15.5,0,17.9,0
2004/1/3,13:00:00,15,0,41.1,0,14.8,0,14.1,0,15.5,0,18,0
2004/1/3,13:10:00,15,0,41.1,0,14.8,0,14.1,0,15.5,0,17.9,0
2004/1/3,13:20:00,15,0,41,0,14.8,0,14.1,0,15.5,0,17.9,0
2004/1/3,13:30:00,15,0,41.1,0,14.8,0,14.1,0,15.5,0,17.8,0
2004/1/3,13:40:00,15,0,41.1,0,14.8,0,14.1,0,15.5,0,17.9,0
2004/1/3,13:50:00,15.1,0,41,0,14.8,0,14.1,0,15.5,0,17.9,0
2004/1/3,14:00:00,15.5,0,40.4,0,14.8,0,14.2,0,15.5,0,17.8,0
2004/1/3,14:10:00,15.4,0,40.1,0,14.8,0,14.2,0,15.5,0,17.9,0
2004/1/3,14:20:00,15.2,0,40.6,0,14.8,0,14.2,0,15.5,0,17.9,0
2004/1/3,14:30:00,15.1,0,40.8,0,14.8,0,14.2,0,15.5,0,17.8,0
2004/1/3,14:40:00,15.2,0,40.8,0,14.8,0,14.2,0,15.5,0,17.9,0
2004/1/3,14:50:00,15.2,0,40.7,0,14.8,0,14.2,0,15.5,0,17.8,0
2004/1/3,15:00:00,15.1,0,40.8,0,14.8,0,14.2,0,15.5,0,17.8,0
2004/1/3,15:10:00,15.1,0,40.8,0,14.8,0,14.1,0,15.5,0,17.8,0
2004/1/3,15:20:00,15,0,40.9,0,14.8,0,14.1,0,15.5,0,17.8,0
2004/1/3,15:30:00,15,0,41,0,14.8,0,14.1,0,15.5,0,17.9,0
2004/1/3,15:40:00,15,0,41.1,0,14.8,0,14.1,0,15.5,0,17.9,0
2004/1/3,15:50:00,14.9,0,41.1,0,14.8,0,14.1,0,15.5,0,17.9,0
2004/1/3,16:00:00,14.9,0,41.2,0,14.8,0,14.1,0,15.5,0,17.8,0
2004/1/3,16:10:00,14.9,0,41.2,0,14.8,0,14.1,0,15.5,0,17.8,0
2004/1/3,16:20:00,14.9,0,41.2,0,14.8,0,14.1,0,15.4,0,17.7,0
2004/1/3,16:30:00,14.8,0,41.1,0,14.7,0,14,0,15.4,0,17.7,0
2004/1/3,16:40:00,14.9,0,41.2,0,14.7,0,14,0,15.4,0,17.9,0
2004/1/3,16:50:00,15,0,41.2,0,14.9,0,14.3,0,5.6,0,17.9,0
2004/1/3,17:00:00,15.5,0,40.2,0,15.3,0,14.8,0,5.8,0,18.2,0
2004/1/3,17:10:00,16.3,0,39.1,0,15.8,0,15.5,0,6,0,18.2,0
2004/1/3,17:20:00,17.1,0,39.1,0,16.3,0,16.1,0,6.1,0,18.5,0
2004/1/3,17:30:00,17.9,0,39.1,0,16.6,0,16.6,0,6.2,0,18.6,0
2004/1/3,17:40:00,18.3,0,39.1,0,17,0,17.1,0,6.3,0,18.6,0
2004/1/3,17:50:00,18.7,0,39.4,0,17.2,0,17.7,0,6.4,0,18.8,0
2004/1/3,18:00:00,19,0,38.5,0,17.5,0,18.2,0,6.5,0,18.8,0
2004/1/3,18:10:00,19.2,0,38,0,17.8,0,18.6,0,6.6,0,18.9,0
2004/1/3,18:20:00,19.5,0,37.8,0,18,0,18.8,0,6.7,0,19,0
2004/1/3,18:30:00,19.7,0,37.4,0,18.2,0,19,0,6.8,0,19.2,0
2004/1/3,18:40:00,20,0,37.2,0,18.4,0,19.2,0,10.6,0,19.3,0
2004/1/3,18:50:00,20.2,0,37.2,0,18.6,0,19.4,0,10.8,0,19.4,0
2004/1/3,19:00:00,20.5,0,38,0,18.8,0,19.5,0,10.8,0,19.4,0